Total_Precipitation_Accumulation
0.08 0.08 0.09 0.08 0.08 0.09 0.11 0.16 0.23 0.19 0.11 0.06 0.05 0.08 0.16 0.22 0.25 0.28 0.26 0.13 0.09 0.07 0.07 0.09 0.11 0.15 0.18 0.21 0.21 0.22 0.20 0.19 0.22 0.29 0.40 0.49 0.55 0.57
0.10 0.10 0.10 0.10 0.11 0.12 0.14 0.16 0.22 0.28 0.24 0.11 0.07 0.10 0.18 0.22 0.29 0.30 0.27 0.23 0.16 0.11 0.11 0.22 0.31 0.32 0.32 0.29 0.26 0.27 0.28 0.27 0.26 0.29 0.35 0.43 0.53 0.61
0.08 0.09 0.10 0.11 0.12 0.12 0.15 0.20 0.24 0.30 0.32 0.15 0.10 0.15 0.23 0.28 0.32 0.33 0.30 0.27 0.23 0.22 0.18 0.27 0.52 0.71 0.63 0.51 0.42 0.37 0.36 0.37 0.36 0.36 0.41 0.46 0.49 0.55
0.09 0.10 0.09 0.09 0.11 0.12 0.15 0.18 0.20 0.25 0.33 0.25 0.17 0.20 0.26 0.34 0.41 0.42 0.38 0.33 0.30 0.34 0.31 0.31 0.48 0.88 0.97 0.74 0.63 0.53 0.45 0.44 0.43 0.45 0.47 0.48 0.47 0.50
0.09 0.11 0.10 0.11 0.12 0.14 0.18 0.19 0.21 0.24 0.33 0.40 0.31 0.27 0.31 0.40 0.51 0.50 0.41 0.39 0.32 0.33 0.35 0.39 0.52 1.04 1.39 1.17 0.90 0.79 0.64 0.55 0.49 0.50 0.54 0.54 0.49 0.44
0.07 0.10 0.11 0.14 0.17 0.19 0.19 0.21 0.26 0.30 0.32 0.36 0.34 0.33 0.37 0.43 0.53 0.58 0.48 0.41 0.34 0.26 0.32 0.40 0.55 1.01 1.57 1.77 1.41 1.13 0.91 0.74 0.62 0.54 0.51 0.50 0.44 0.37
0.07 0.09 0.10 0.13 0.18 0.20 0.22 0.26 0.35 0.40 0.37 0.36 0.36 0.37 0.40 0.47 0.49 0.50 0.47 0.38 0.27 0.23 0.25 0.33 0.56 1.18 1.73 2.06 1.97 1.46 1.08 0.86 0.70 0.59 0.54 0.48 0.42 0.36
0.10 0.09 0.06 0.07 0.10 0.14 0.21 0.28 0.35 0.41 0.44 0.46 0.43 0.36 0.34 0.38 0.42 0.46 0.44 0.40 0.31 0.21 0.21 0.34 0.68 1.42 1.98 2.27 2.26 1.66 1.13 0.92 0.81 0.72 0.66 0.59 0.50 0.42
0.12 0.09 0.06 0.04 0.08 0.12 0.16 0.20 0.26 0.36 0.48 0.54 0.51 0.37 0.37 0.43 0.50 0.53 0.41 0.40 0.39 0.25 0.24 0.41 0.80 1.38 1.96 2.47 2.43 1.80 1.31 1.05 0.95 0.86 0.78 0.69 0.58 0.47
0.08 0.08 0.08 0.09 0.10 0.13 0.15 0.20 0.30 0.37 0.43 0.45 0.49 0.49 0.53 0.51 0.45 0.43 0.39 0.42 0.38 0.22 0.21 0.45 0.82 1.32 1.81 2.20 2.29 1.79 1.37 1.14 1.02 0.91 0.79 0.68 0.58 0.50
0.04 0.06 0.08 0.11 0.12 0.19 0.26 0.35 0.51 0.65 0.65 0.64 0.67 0.76 0.79 0.63 0.44 0.37 0.41 0.42 0.34 0.22 0.22 0.42 0.74 1.08 1.47 1.75 1.82 1.65 1.35 1.17 1.02 0.88 0.74 0.62 0.54 0.50
0.03 0.06 0.11 0.17 0.18 0.29 0.37 0.50 0.69 0.82 0.72 0.65 0.69 0.80 0.72 0.64 0.61 0.53 0.47 0.39 0.30 0.26 0.26 0.40 0.59 0.76 1.17 1.44 1.33 1.16 1.10 1.13 1.06 0.94 0.79 0.61 0.45 0.36
0.07 0.12 0.17 0.25 0.25 0.37 0.53 0.64 0.86 0.94 0.78 0.61 0.55 0.54 0.54 0.53 0.51 0.52 0.43 0.32 0.26 0.25 0.28 0.37 0.51 0.63 0.81 1.10 1.20 1.11 0.92 0.89 0.89 0.95 0.94 0.75 0.51 0.35
0.14 0.23 0.27 0.30 0.33 0.50 0.63 0.81 1.06 1.11 0.80 0.54 0.39 0.34 0.36 0.40 0.42 0.37 0.29 0.23 0.21 0.23 0.27 0.32 0.46 0.61 0.60 0.66 0.95 1.05 0.99 0.95 0.87 0.84 0.85 0.81 0.66 0.56
0.18 0.35 0.37 0.35 0.50 0.71 0.90 1.04 1.15 1.05 0.75 0.49 0.35 0.30 0.27 0.28 0.30 0.31 0.27 0.22 0.19 0.21 0.24 0.28 0.38 0.50 0.49 0.48 0.66 0.77 0.94 1.14 1.03 0.92 0.82 0.71 0.62 0.55
0.16 0.31 0.43 0.48 0.64 0.87 1.03 1.09 1.08 0.99 0.76 0.51 0.38 0.33 0.29 0.28 0.29 0.27 0.25 0.22 0.22 0.28 0.29 0.30 0.35 0.40 0.47 0.48 0.53 0.63 0.74 1.11 1.17 0.94 0.80 0.75 0.68 0.58
0.17 0.22 0.30 0.42 0.60 0.78 0.89 0.92 0.87 0.82 0.72 0.54 0.42 0.38 0.35 0.33 0.32 0.28 0.24 0.21 0.22 0.27 0.31 0.34 0.36 0.37 0.41 0.44 0.52 0.62 0.72 0.92 0.99 0.81 0.64 0.69 0.73 0.64
0.19 0.27 0.39 0.52 0.66 0.76 0.82 0.80 0.74 0.68 0.60 0.50 0.43 0.39 0.36 0.33 0.32 0.27 0.21 0.19 0.21 0.23 0.25 0.28 0.27 0.24 0.27 0.41 0.54 0.55 0.60 0.71 0.73 0.59 0.43 0.46 0.62 0.63
0.19 0.31 0.45 0.58 0.69 0.73 0.73 0.70 0.66 0.60 0.52 0.44 0.39 0.36 0.32 0.29 0.26 0.22 0.19 0.18 0.17 0.17 0.17 0.17 0.15 0.10 0.11 0.34 0.58 0.55 0.48 0.49 0.46 0.42 0.34 0.31 0.44 0.52
0.23 0.36 0.46 0.53 0.61 0.66 0.64 0.63 0.60 0.53 0.45 0.40 0.38 0.35 0.29 0.25 0.21 0.18 0.16 0.14 0.12 0.10 0.10 0.10 0.10 0.08 0.06 0.16 0.40 0.56 0.48 0.36 0.28 0.27 0.26 0.26 0.33 0.37
0.28 0.36 0.42 0.45 0.49 0.53 0.53 0.52 0.49 0.46 0.40 0.36 0.34 0.34 0.32 0.25 0.19 0.14 0.11 0.10 0.08 0.07 0.07 0.09 0.10 0.07 0.05 0.05 0.17 0.32 0.37 0.32 0.22 0.16 0.15 0.16 0.18 0.17
0.28 0.35 0.38 0.37 0.36 0.38 0.38 0.36 0.35 0.35 0.33 0.32 0.31 0.30 0.28 0.22 0.16 0.11 0.09 0.07 0.06 0.05 0.04 0.06 0.07 0.06 0.05 0.05 0.09 0.17 0.21 0.21 0.17 0.14 0.12 0.09 0.08 0.10
0.26 0.29 0.31 0.32 0.30 0.28 0.28 0.28 0.29 0.29 0.28 0.28 0.27 0.26 0.22 0.18 0.13 0.09 0.06 0.04 0.03 0.03 0.03 0.04 0.04 0.04 0.04 0.03 0.05 0.08 0.10 0.10 0.08 0.09 0.13 0.12 0.07 0.07